{"data":{"norad_id":31119,"epoch":"2026-05-25T04:20:46.677984Z","epoch_age_seconds":56584,"freshness":"FRESH","line1":"1 31119U 07012C   26145.18109581  .00000436  00000+0  87500-4 0  9992","line2":"2 31119  98.3766 118.8440 0054361 268.6277  90.8698 14.66083190 19063","mean_motion":14.6608319,"eccentricity":0.0054361,"inclination_deg":98.3766,"raan_deg":118.844,"arg_perigee_deg":268.6277,"mean_anomaly_deg":90.8698,"bstar":8.75e-5,"rev_number":1906,"period_min":98.22089290854,"perigee_km":635.26592250871,"apogee_km":711.93381609916,"semimajor_km":7051.7368693039,"source":"CELESTRAK","updated_at":"2026-05-25T13:37:55.095772Z"}}